sat.trackr.live / text

‹ back to catalog

STARLINK-37091

NORAD 68191 · 2026-050AA

PAYLOAD ACTIVE UNKNOWN

§ Identity

Operator
Country
US
Launch date
2026-03-14
Launch site
AFETR
Launch vehicle
Mass (kg)
RCS (m²)

Purposes: comms

External: N2YO · Heavens-Above · Gunter

§ Orbital elements

Epoch: 2026-09-20T03:39:06.804576Z

Period
93.85 min
Inclination
53.1581°
Eccentricity
0.0000456
Mean motion
15.34397337 rev/d
Perigee alt
462.4 km
Apogee alt
463.0 km
Semi-major
6,840.8 km
B*
3.1418e-4
RAAN
79.4073°
Arg perigee
93.7156°
Mean anomaly
266.3899°
Rev number
3,051

§ Raw data

STARLINK-370911 68191U 26050AA  26263.15216209  .00010253  00000+0  31418-3 0  99932 68191  53.1581  79.4073 0000456  93.7156 266.3899 15.34397337 30513

JSON: /api/v1/satellites/68191 · /tle

For live sub-satellite position, see the globe view (requires WebGL).

§ Visibility from observer

Set your observer location to see the next 7 days of passes ≥ 10°. The values pass through the URL so the page stays shareable.

No JS? Fill the form by hand. The geolocation button needs JavaScript.